STARLINK-2285, 48019

Orbit data source: Space-Track

STARLINK-2285, 48019 is a payload satellite owned by SpaceX/Seattle (US) in LEO that was launched on Wed, 24 Mar 2021 UTC via an FALCON 9 launch vehicle from the Air Force Eastern Test Range (AFETR). Payload-class satellites include a variety of spacecraft equipped with specific instruments for various scientific and technological missions. These include communications satellites like Starlink; space stations such as the ISS; scientific satellites like the Hubble; Earth observation satellites from companies like Planet Labs, Umbra, and HawkEye 360; GPS; miniature CubeSats for education and research; and military/defense satellites.

Loading next visibility...
Identifier
48019, 2021-024AU
Orbit
LEO
Country
Flag of USUS
Related business
Manufacturer
SpaceX/Seattle
Mission
Operational Commercial Communications
Bus & Motor
STARLINK, Unknown motor
Mass
260 kg wet, ~248 kg dry
Launch date (UTC)
2021-03-24 (5 years ago)
Launch vehicle
FALCON 9
Launch site
Air Force Eastern Test Range (AFETR)
Object type
Payload
Rocket body
Debris
Shape & HBR
Box + 1 Pan, 10.1 m
Radar Cross Section
13.562 m², Large (>1 m²)

Expand to show TLE details & history
Last TLE update: 1 day ago

TLE from 1 day ago
0 STARLINK-2285
1 48019U 21024AU  25348.66065949 -.00003520  00000-0 -21766-3 0  9995
2 48019  53.0542 333.3277 0001365  88.6758 271.4388 15.06379529262031
Epoch: 2025-12-14T15:51Z
TLE epoch observation values (Epoch: 2025-12-14T15:51:20.979Z)
Latitude
0.00001°
Longitude
11.91991°
Altitude
548.13 km
Speed
7.589 km/s
True Right ascension
22h 13m 18s
True Declination
0° 00' 00"
Sunlit
Object was in daylight at epoch
Visualization orbit readout
Latitude
Unknown
Longitude
Unknown
Altitude
Unknown
Speed
Unknown
Apparent Right ascension
Unknown
Apparent Declination
Unknown
Sunlit
N/A
Visualization observer readout
Local Sidereal Time
18:07:57
Azimuth
Unknown
Elevation
Unknown
Doppler factor
Unknown
Orbital elements
Apogee altitude
548.49 km
Perigee altitude
546.6 km
Semi-major axis
6,925.682 km
Eccentricity
0.00014
Inclination
53.0542°
RAAN
333.3277°
Arg. of periapsis
88.6758°
True anomaly
271.42316°
Mean anomaly
271.4388°
Eccentric anomaly
271.43098°
Mean motion
3.76573 °/min
Orbital period
95.6 mins
BSTAR
-0.00021766
Loading maneuver chart data...
Computing Atmospheric mass density...

Documentation

Showing up to 5 results
|